Guadalajara Don Miguel, Mexico

2:15 PM CDT on May 29, 2017 (GMT -0500)
Guadalajara Don Miguel

Weather History for MMGL - December, 2012

Change the Weather History Date:

Sunday, December 23, 2012

  Actual Average Record
Temperature  
Mean Temperature 60 °F -  
Max Temperature 80 °F 73 °F 80 °F (2012)
Min Temperature 41 °F 38 °F 32 °F (2003)
Degree Days  
Heating Degree Days 4    
Growing Degree Days 10 (Base 50)    
Moisture  
Dew Point 38 °F    
Average Humidity 52    
Maximum Humidity 87    
Minimum Humidity 17    
Precipitation  
Precipitation 0.00 in - - ()
Sea Level Pressure  
Sea Level Pressure 30.12 in    
Wind  
Wind Speed 2 mph ()    
Max Wind Speed 10 mph    
Max Gust Speed -    
Visibility 8.8 miles    
Events      
Averages and records for this station are not official NWS values.
T = Trace of Precipitation, MM = Missing Value Source: Averaged Metar Reports

Daily Weather History Graph

Daily Weather History Graph

Search for Another Location

Airport or City:

Trip Planner

Search our weather history database for the weather conditions in past years. The results will help you decide how hot, cold, wet, or windy it might be!

Date:

Astronomy

Dec. 23, 2012 Rise Set
Actual Time 7:25 AM CST 6:19 PM CST
Civil Twilight 7:01 AM CST 6:43 PM CST
Nautical Twilight 6:34 AM CST 7:11 PM CST
Astronomical Twilight 6:07 AM CST 7:38 PM CST
Moon 2:58 PM CST (12/23) 3:26 AM CST (12/23)
Length of Visible Light 11h 41m
Length of Day
10h 53m
Waxing Gibbous, 82% of the Moon is Illuminated
Dec 23
Waxing Gibbous
Dec 28
Full
Jan 4
Last Quarter
Jan 11
New
Jan 18
First Quarter

Hourly Weather History & Observations

Time (CST) Temp. Dew Point Humidity Pressure Visibility Wind Dir Wind Speed Gust Speed Precip Events Conditions
12:54 AM 48.2 °F 37.4 °F 66% 30.23 in 10.0 mi Calm Calm - N/A   Clear
1:57 AM 48.2 °F 37.4 °F 66% 30.23 in 10.0 mi Calm Calm - N/A   Clear
2:53 AM 46.4 °F 37.4 °F 71% 29.99 in 10.0 mi Calm Calm - N/A   Clear
3:55 AM 42.8 °F 35.6 °F 76% 30.23 in 10.0 mi Calm Calm - N/A   Clear
4:54 AM 42.8 °F 37.4 °F 81% 30.22 in 8.0 mi Calm Calm - N/A   Clear
5:51 AM 42.8 °F 37.4 °F 81% 30.02 in 8.0 mi Calm Calm - N/A   Clear
7:06 AM 41.0 °F 37.4 °F 87% 30.25 in 8.0 mi Calm Calm - N/A   Clear
7:51 AM 41.0 °F 37.4 °F 87% 30.26 in 8.0 mi Calm Calm - N/A   Partly Cloudy
8:52 AM 53.6 °F 41.0 °F 62% 30.10 in 8.0 mi Calm Calm - N/A   Partly Cloudy
9:53 AM 60.8 °F 42.8 °F 52% 30.27 in 7.0 mi ESE 3.5 mph - N/A   Partly Cloudy
10:49 AM 68.0 °F 42.8 °F 40% 30.26 in 7.0 mi ESE 3.5 mph - N/A   Partly Cloudy
11:54 AM 71.6 °F 41.0 °F 33% 30.03 in 8.0 mi Calm Calm - N/A   Scattered Clouds
12:51 PM 75.2 °F 39.2 °F 27% 30.20 in 8.0 mi NNE 4.6 mph - N/A   Scattered Clouds
1:47 PM 77.0 °F 37.4 °F 24% 30.15 in 8.0 mi NW 10.4 mph - N/A   Scattered Clouds
2:48 PM 78.8 °F 32.0 °F 18% 29.88 in 8.0 mi NNE 5.8 mph - N/A   Mostly Cloudy
3:44 PM 80.6 °F 32.0 °F 17% 30.11 in 8.0 mi Calm Calm - N/A   Scattered Clouds
4:48 PM 78.8 °F 32.0 °F 18% 30.11 in 8.0 mi WNW 6.9 mph - N/A   Scattered Clouds
5:53 PM 75.2 °F 37.4 °F 25% 29.91 in 10.0 mi North 5.8 mph - N/A   Scattered Clouds
6:52 PM 69.8 °F 37.4 °F 31% 30.11 in 10.0 mi WNW 5.8 mph - N/A   Scattered Clouds
7:50 PM 64.4 °F 39.2 °F 40% 30.13 in 10.0 mi WSW 4.6 mph - N/A   Scattered Clouds
8:52 PM 57.2 °F 39.2 °F 51% 30.01 in 10.0 mi West 3.5 mph - N/A   Clear
9:43 PM 55.4 °F 39.2 °F 54% 30.15 in 10.0 mi South 4.6 mph - N/A   Clear
10:49 PM 51.8 °F 41.0 °F 67% 30.17 in 10.0 mi South 4.6 mph - N/A   Clear
11:49 PM 51.8 °F 41.0 °F 67% 29.94 in 10.0 mi Calm Calm - N/A   Clear